Dewpoint
52 51 51 51 49 50 50 51 50 51 52 50 51 51 50 50 50 48 47 47 48 47 47 47 48 50 45 39 37 39 49 52 54 54 49 48 43 47 45 44 41 40 38 40 42 44 45
51 51 51 50 49 49 51 51 52 52 51 51 50 50 50 50 48 47 47 46 47 46 46 46 48 50 43 37 39 47 51 48 53 53 49 49 40 46 44 42 40 39 39 38 36 40 40
51 51 51 50 49 49 50 51 51 51 50 50 51 51 51 49 48 46 46 46 46 47 47 45 46 44 40 36 39 48 49 50 52 52 48 48 45 43 42 42 42 38 37 37 37 38 37
51 51 50 50 49 49 48 50 50 51 50 49 49 49 49 48 47 46 46 45 45 46 46 46 45 43 36 38 37 36 47 49 49 52 53 51 49 42 43 42 41 38 36 34 35 37 37
51 51 50 50 49 49 48 50 50 50 51 49 49 50 48 48 47 47 46 46 45 46 46 45 43 40 34 41 37 35 38 43 46 51 53 50 49 43 41 39 37 38 32 33 33 36 35
51 51 50 50 50 49 48 48 49 50 51 51 49 48 49 48 47 46 47 46 45 45 45 42 38 35 36 32 40 36 43 49 46 49 47 47 46 39 39 39 32 33 31 31 32 34 34
50 50 50 50 50 49 49 48 48 48 49 50 51 49 48 48 48 48 46 45 40 37 39 34 34 33 31 38 43 39 49 47 47 44 39 44 42 35 35 37 34 33 31 29 32 33 35
50 50 50 49 49 50 50 49 48 48 47 47 49 50 49 48 49 49 45 36 37 39 35 37 34 32 34 40 39 44 48 41 43 39 41 40 36 37 37 36 35 31 30 28 29 33 33
49 49 49 49 49 48 48 49 50 48 48 47 47 49 50 49 49 46 42 42 45 43 37 37 37 38 41 42 38 42 44 41 40 39 40 36 36 37 36 33 31 29 26 27 28 31 30
49 49 49 49 48 49 48 48 48 49 48 47 47 47 49 50 45 41 40 44 45 44 32 35 38 41 41 42 40 46 47 43 42 37 38 37 38 35 33 32 29 26 28 29 31 28 24
49 49 49 48 49 49 49 49 48 47 48 47 47 47 48 49 43 41 42 43 44 41 20 35 38 46 45 41 40 40 48 44 39 40 40 37 39 36 33 32 30 29 32 32 31 29 28
48 48 49 48 50 48 49 48 48 48 48 47 46 47 48 46 46 44 43 43 43 29 22 34 40 38 41 40 41 42 43 43 42 39 38 38 40 40 38 38 34 34 32 31 31 29 24
47 48 49 48 48 49 48 48 48 48 47 47 47 48 46 45 42 43 44 42 29 20 34 34 37 38 36 37 38 37 38 38 36 31 33 36 36 38 39 35 36 33 29 24 23 21 21
47 48 48 48 48 48 48 48 47 47 47 48 48 50 48 46 44 44 43 36 23 32 34 38 37 36 35 36 37 37 37 36 37 35 34 31 30 37 38 35 33 33 29 25 19 18 22
47 47 47 47 47 46 47 47 47 48 48 47 48 46 44 45 45 44 39 24 26 31 34 34 34 34 33 36 37 38 37 37 38 38 31 31 29 37 38 39 37 34 31 28 23 21 17
46 47 46 47 47 46 47 47 47 48 47 47 42 42 42 46 44 43 34 27 31 37 37 35 29 29 28 30 33 36 36 38 37 37 37 34 30 36 38 39 38 35 32 29 27 16 15
46 46 45 45 47 47 47 47 46 46 47 47 42 38 43 46 45 40 28 27 35 37 36 33 31 28 28 28 29 28 30 35 38 37 34 33 33 34 37 36 35 34 31 30 28 25 19
45 45 45 46 46 47 46 46 47 46 47 43 39 39 44 47 37 36 30 35 38 36 36 35 33 31 29 28 27 29 29 30 32 32 33 32 33 31 34 37 38 35 32 29 26 22 21
45 45 46 46 46 47 46 46 46 46 45 42 36 37 45 45 36 32 34 36 37 35 34 32 31 32 31 28 27 29 30 32 33 32 29 31 30 27 29 33 35 34 34 34 30 29 24
45 45 46 46 46 46 46 46 46 45 45 42 39 36 40 41 40 37 33 32 35 38 35 33 31 31 29 27 27 29 31 34 32 32 39 35 30 25 22 23 30 28 31 33 34 28 25
44 45 46 46 46 46 46 46 46 46 47 41 37 36 37 35 35 35 37 36 33 33 37 33 32 31 29 26 26 28 31 32 33 37 32 32 24 25 27 30 30 29 29 29 27 27 23
43 45 46 46 46 46 45 46 46 46 43 34 34 34 36 34 35 33 35 35 35 35 34 31 32 30 28 32 30 27 29 28 28 32 30 32 25 26 21 28 28 27 29 29 29 27 27
44 46 46 46 46 45 46 46 46 46 41 31 33 35 37 34 32 32 34 35 36 36 36 36 36 35 34 34 36 34 30 29 29 30 29 31 26 21 19 26 26 22 26 27 28 29 27
45 46 46 46 46 46 45 45 46 44 43 35 33 34 31 27 22 26 27 32 34 34 35 37 39 36 35 36 35 32 31 30 30 30 30 31 29 24 18 23 15 20 28 28 27 28 29
44 46 46 46 46 46 45 45 45 45 45 36 36 34 30 25 21 21 24 24 29 34 36 38 41 41 41 38 32 29 30 29 29 30 29 32 31 24 21 21 23 25 28 27 27 27 29
43 45 46 45 46 46 45 45 45 45 45 39 37 37 33 26 22 22 21 25 29 30 35 39 41 42 40 38 34 28 27 27 28 30 32 31 31 27 28 21 20 28 29 30 31 26 32
43 44 46 45 45 45 46 46 45 45 44 42 40 38 33 28 28 28 24 29 26 25 29 35 33 37 39 34 30 28 27 25 25 26 26 30 29 26 28 25 24 27 30 34 28 29 31
45 45 46 46 45 45 45 45 45 44 45 42 40 39 33 29 30 30 28 24 25 25 24 27 32 37 37 32 30 29 27 26 25 25 27 26 25 26 27 25 20 35 34 32 33 35 35
45 46 48 47 45 45 45 45 44 44 44 43 40 41 39 33 30 34 33 33 32 31 27 26 26 32 35 36 35 33 29 26 26 24 28 25 27 25 26 26 28 35 33 36 36 35 36
Lifted_Index
16 16 15 15 14 13 11 10 8 7 7 7 6 6 5 3 1 0 0 -0 -0 -0 -0 -0 -0 -0 1 2 3 3 3 1 -0 -1 -0 0 0 -0 -1 -1 -1 0 1 1 2 2 2
16 16 15 15 14 13 11 9 8 7 6 6 6 5 4 2 1 0 0 -0 -0 -0 -0 -0 -1 -0 0 2 2 2 2 1 -0 -1 -0 0 0 -0 -1 -1 -1 -0 0 1 2 2 3
16 16 16 15 14 13 11 9 7 6 6 6 5 4 4 2 1 0 -0 -0 -0 -1 -1 -1 -1 -0 0 1 2 2 2 1 0 -0 -0 0 0 0 -0 -1 -1 -0 0 1 2 2 3
16 16 16 15 14 13 11 10 8 6 6 6 5 5 4 3 2 1 -0 -1 -1 -1 -1 -1 -0 0 1 1 2 2 2 2 1 -0 -0 -0 0 0 -0 -0 -1 -0 -0 0 1 2 2
16 16 16 15 14 13 12 10 8 7 6 6 5 5 4 3 3 2 0 -0 -1 -1 -1 -0 0 0 1 1 2 2 2 2 1 0 -0 -0 0 1 0 0 0 0 0 0 1 1 2
16 16 16 15 14 12 12 11 9 7 6 5 5 5 4 4 3 2 1 0 -0 -1 -0 0 1 1 1 1 1 2 2 1 0 0 0 0 0 1 1 1 1 1 1 1 1 1 1
16 16 16 15 14 12 12 11 10 8 7 6 5 5 5 4 3 3 2 2 1 1 0 1 1 1 1 0 0 1 1 0 0 1 1 1 1 1 2 1 1 1 1 1 1 1 1
16 16 16 15 14 13 12 11 10 9 8 7 6 6 5 5 4 4 3 3 3 2 1 1 1 1 1 0 -0 -0 0 1 1 1 1 1 1 2 2 1 1 1 1 1 1 1 1
16 16 16 15 14 13 12 11 10 9 8 8 7 6 6 5 5 5 5 4 4 3 2 2 2 1 1 0 -0 -0 0 1 1 1 1 1 1 2 2 1 1 1 1 2 2 1 1
16 16 16 15 14 13 12 11 10 9 9 9 8 7 6 6 6 6 5 5 5 4 2 2 2 2 1 1 0 0 0 1 1 1 1 1 1 2 1 1 1 2 2 2 2 2 2
17 16 16 15 14 13 12 11 11 10 9 9 9 8 7 6 6 6 6 6 6 4 2 2 2 2 2 2 1 1 1 1 1 1 1 1 1 1 1 1 1 2 2 1 2 2 2
17 17 16 16 15 14 13 11 11 10 10 10 9 8 7 7 6 6 7 6 5 3 2 2 2 2 1 2 2 2 1 1 1 1 1 1 1 0 1 1 1 1 1 1 1 1 1
17 17 17 16 15 14 13 12 11 11 11 10 10 8 7 7 7 7 6 5 3 2 2 1 1 1 1 2 2 2 1 1 1 1 1 1 0 0 1 1 1 1 1 1 1 1 1
17 17 17 17 16 15 14 13 12 11 11 10 9 8 7 6 7 7 6 4 3 3 3 2 1 1 1 1 1 1 1 1 1 1 1 1 1 1 1 1 1 1 1 1 1 1 1
17 18 18 17 16 15 15 14 13 12 11 10 9 7 6 6 6 6 5 3 3 3 3 3 2 2 1 1 1 1 1 2 2 2 2 2 2 1 1 1 1 1 1 1 1 1 1
18 18 18 17 17 16 15 14 13 12 12 10 8 6 5 5 5 5 4 4 3 3 3 3 2 2 2 1 1 1 2 2 2 2 2 2 2 1 1 1 1 1 1 1 1 1 1
18 18 18 18 17 16 15 15 14 13 12 10 7 5 5 5 4 4 4 4 3 3 3 3 3 2 2 2 2 2 2 2 2 2 2 2 1 1 1 1 1 1 1 1 1 1 1
18 18 18 17 17 16 16 16 15 14 12 10 7 4 4 4 4 3 3 3 3 3 3 3 3 3 2 2 2 3 3 3 2 2 2 2 2 1 1 1 1 1 1 1 1 1 1
18 18 17 17 17 17 17 16 15 14 12 10 7 4 4 4 3 3 3 3 3 3 3 3 3 3 3 3 3 3 3 3 3 3 2 3 2 1 1 1 1 1 1 1 1 1 1
18 17 17 17 17 17 18 17 15 14 12 9 7 5 3 3 3 3 3 2 2 3 3 3 3 3 3 3 2 3 3 3 3 3 3 3 3 2 2 2 2 2 1 2 1 1 1
17 17 16 16 17 17 18 17 16 14 12 10 8 6 4 3 3 3 2 2 2 2 3 3 3 3 3 3 3 2 3 3 3 3 3 3 3 3 3 3 2 2 2 2 2 2 2
17 17 16 16 16 17 18 17 16 14 13 12 10 7 4 3 3 3 2 2 2 2 2 3 3 3 3 3 3 3 3 3 3 3 3 3 3 3 3 3 3 3 3 3 3 3 3
17 16 16 16 16 17 17 17 16 15 14 12 11 9 5 4 3 3 3 2 2 2 2 2 2 2 3 3 3 3 3 3 3 3 3 3 3 3 3 3 3 3 3 4 4 4 4
16 16 15 15 15 16 17 16 16 15 13 12 11 9 7 5 4 3 3 2 2 2 2 2 2 2 3 3 3 3 3 3 3 3 3 3 3 3 2 2 2 3 3 3 4 4 4
16 15 15 15 15 15 16 16 15 14 13 11 10 9 8 6 5 5 4 3 3 2 2 2 2 2 3 3 3 3 3 3 3 3 3 3 3 3 2 2 2 2 3 3 3 4 4
15 15 14 14 14 14 15 15 14 13 12 10 10 9 8 7 7 7 6 6 5 3 3 2 2 2 2 2 2 2 2 3 3 3 3 3 3 3 2 2 1 2 3 3 3 2 2
14 14 14 13 14 14 14 14 13 12 11 10 10 10 9 7 7 8 8 7 7 5 4 3 3 3 2 2 2 2 2 2 2 3 3 3 3 3 3 2 2 2 3 3 2 2 2
12 12 12 12 13 13 13 13 12 11 10 10 10 10 10 9 9 9 9 9 9 8 6 5 4 3 3 3 3 2 2 2 2 3 3 3 3 3 3 3 2 3 3 3 2 2 2
11 11 11 11 12 12 12 13 12 10 9 9 10 11 11 11 11 10 10 10 10 10 8 7 5 4 4 3 3 3 2 2 2 2 3 3 3 3 3 3 3 3 3 3 2 2 2